Hourly Data Report for February 29, 2012

BAGOTVILLE A
QUEBEC

48°20'00.000" N
71°00'00.000" W
159.10 m
7060400
71727
YBG

Download Data

Hourly Data (February 2012)
Hourly Data Report for February 29, 2012
TIME
LST
Temp Definition
°C
Dew Point Definition
°C
Rel Hum Definition
%
Precip. Amount Definition
mm

Wind Dir Definition
10's deg

Wind Spd Definition
km/h
Visibility Definition
km
Stn Press Definition
kPa
Hmdx Definition


Wind Chill Definition


Weather Definition


00:00 -18.5 -20.6 83     0 24.1 100.72     Mainly Clear
01:00 -17.4 -19.4 84   27 6 24.1 100.73   -22 Mostly Cloudy
02:00 -16.0 -17.9 85     0 24.1 100.68     Mostly Cloudy
03:00 -16.2 -18.1 85   34 7 24.1 100.66   -21 Mainly Clear
04:00 -19.5 -21.0 88   29 6 24.1 100.70   -24 Mainly Clear
05:00 -18.2 -20.3 84     0 24.1 100.71     Mainly Clear
06:00 -19.4 -20.2 93     0 40.2 100.70     Mainly Clear
07:00 -19.4 -20.9 88   9 4 40.2 100.72   -23 Mainly Clear
08:00 -16.4 -20.1 73     0 40.2 100.77     Mainly Clear
09:00 -13.6 -19.1 63   27 4 40.2 100.78   -16 Clear
10:00 -10.5 -17.6 56   31 11 40.2 100.78   -16 Clear
11:00 -9.2 -15.1 62   30 9 40.2 100.75   -14 Mainly Clear
12:00 -8.3 -12.9 69   28 9 40.2 100.65   -13 Mainly Clear
13:00 -7.5 -13.6 62   30 9 40.2 100.61   -12 Mainly Clear
14:00 -6.8 -9.8 79   29 11 40.2 100.60   -12 Mainly Clear
15:00 -6.0 -11.9 63   29 11 40.2 100.57   -11 Mainly Clear
16:00 -7.2 -12.7 65   28 11 40.2 100.55   -12 Mainly Clear
17:00 -8.2 -11.5 77   32 6 40.2 100.53   -11 Mainly Clear
18:00 -11.0 -15.0 72   27 4 24.1 100.53   -13 Mainly Clear
19:00 -12.6 -17.1 69   21 9 24.1 100.52   -18 Mainly Clear
20:00 -15.0 -17.8 79   19 9 24.1 100.47   -21 Mainly Clear
21:00 -15.4 -17.2 86     0 24.1 100.35     Mainly Clear
22:00 -14.5 -19.0 69   13 11 24.1 100.34   -21 Mainly Clear
23:00 -15.5 -19.0 74   12 7 24.1 100.40   -20 Mainly Clear

Notes on Data Quality.

Legend

  • E = Estimated
  • M = Missing
  • NA = Not Available*
  • [empty] = Indicates an unobserved value
Date modified: